| time (UTC) | temp F | wind direction | speed MPH | gust MPH | rain 1hr in | rain 24hr in | rain mn in | humidity % | barometer mb |
| 20260904032328 | 67 | 0 | 0.0 | 0.0 | 0.00 | 0.00 | 0.83 | 100 | 1016.1 |
| 20260904031827 | 67 | 0 | 0.0 | 0.0 | 0.00 | 0.00 | 0.83 | 100 | 1016.0 |
| 20260904031325 | 67 | 0 | 0.0 | 0.0 | 0.00 | 0.00 | 0.83 | 100 | 1015.9 |
| 20260904030845 | 67 | 0 | 0.0 | 0.0 | 0.00 | 0.00 | 0.83 | 100 | 1015.9 |
| 20260904030323 | 67 | 0 | 0.0 | 0.0 | 0.00 | 0.00 | 0.83 | 100 | 1015.8 |
| 20260904025823 | 67 | 0 | 0.0 | 0.0 | 0.00 | 0.00 | 0.83 | 100 | 1015.9 |
| 20260904025321 | 67 | 0 | 0.0 | 0.0 | 0.00 | 0.00 | 0.83 | 100 | 1015.9 |
| 20260904024820 | 67 | 0 | 0.0 | 0.0 | 0.00 | 0.00 | 0.83 | 100 | 1015.9 |
| 20260904024320 | 67 | 0 | 0.0 | 0.0 | 0.00 | 0.00 | 0.83 | 100 | 1015.9 |
| 20260904023819 | 68 | 0 | 0.0 | 0.0 | 0.00 | 0.00 | 0.83 | 100 | 1015.8 |
| 20260904023318 | 68 | 0 | 0.0 | 0.0 | 0.00 | 0.00 | 0.83 | 100 | 1015.8 |
| 20260904022816 | 68 | 0 | 0.0 | 0.0 | 0.00 | 0.00 | 0.83 | 100 | 1015.8 |
| 20260904022316 | 68 | 0 | 0.0 | 0.0 | 0.00 | 0.00 | 0.83 | 100 | 1015.5 |
| 20260904021815 | 68 | 5 | 0.0 | 0.0 | 0.00 | 0.00 | 0.83 | 100 | 1015.8 |
| 20260904021314 | 68 | 13 | 0.0 | 0.0 | 0.00 | 0.00 | 0.83 | 100 | 1015.8 |
| 20260904020813 | 68 | 13 | 0.0 | 0.0 | 0.00 | 0.00 | 0.83 | 100 | 1015.9 |
| 20260904020312 | 68 | 13 | 0.0 | 3.0 | 0.00 | 0.00 | 0.83 | 100 | 1015.8 |
| 20260904015811 | 68 | 13 | 0.0 | 0.0 | 0.00 | 0.00 | 0.83 | 100 | 1015.7 |
| 20260904015309 | 68 | 13 | 0.0 | 0.0 | 0.00 | 0.00 | 0.83 | 100 | 1015.8 |
| 20260904014808 | 68 | 0 | 0.0 | 0.0 | 0.00 | 0.00 | 0.83 | 100 | 1015.7 |
| 20260904014307 | 68 | 0 | 0.0 | 0.0 | 0.00 | 0.00 | 0.83 | 100 | 1015.6 |
| 20260904013806 | 68 | 312 | 0.0 | 1.0 | 0.00 | 0.00 | 0.83 | 100 | 1015.5 |
| 20260904013306 | 68 | 342 | 0.0 | 0.0 | 0.00 | 0.00 | 0.83 | 100 | 1015.6 |
| 20260904012805 | 68 | 331 | 0.0 | 2.0 | 0.00 | 0.00 | 0.83 | 100 | 1015.7 |
| 20260904012307 | 68 | 324 | 1.0 | 6.0 | 0.00 | 0.00 | 0.83 | 100 | 1015.7 |
| 20260904011803 | 69 | 308 | 1.0 | 6.0 | 0.00 | 0.00 | 0.83 | 100 | 1015.7 |
| 20260904011301 | 69 | 313 | 0.0 | 0.0 | 0.00 | 0.00 | 0.83 | 100 | 1015.6 |
| 20260904010801 | 69 | 321 | 0.0 | 3.0 | 0.00 | 0.00 | 0.83 | 100 | 1015.5 |
| 20260904010259 | 69 | 0 | 0.0 | 0.0 | 0.00 | 0.00 | 0.83 | 100 | 1015.4 |
| 20260904005758 | 69 | 295 | 0.0 | 2.0 | 0.00 | 0.00 | 0.83 | 100 | 1015.0 |
| 20260904005257 | 69 | 267 | 0.0 | 4.0 | 0.00 | 0.00 | 0.83 | 100 | 1015.3 |
| 20260904004756 | 69 | 255 | 0.0 | 4.0 | 0.00 | 0.00 | 0.83 | 100 | 1015.3 |
| 20260904004256 | 69 | 254 | 0.0 | 6.0 | 0.00 | 0.00 | 0.83 | 100 | 1015.3 |
| 20260904003815 | 69 | 295 | 1.0 | 6.0 | 0.00 | 0.00 | 0.83 | 100 | 1015.2 |
| 20260904003254 | 69 | 321 | 0.0 | 5.0 | 0.00 | 0.00 | 0.83 | 100 | 1015.2 |
| 20260904002753 | 69 | 286 | 2.0 | 5.0 | 0.00 | 0.00 | 0.83 | 99 | 1015.1 |
| 20260904002313 | 69 | 317 | 1.0 | 5.0 | 0.00 | 0.00 | 0.83 | 99 | 1015.0 |
| 20260904001751 | 69 | 282 | 0.0 | 2.0 | 0.00 | 0.00 | 0.83 | 99 | 1015.0 |
| 20260904001249 | 69 | 301 | 0.0 | 1.0 | 0.00 | 0.00 | 0.83 | 99 | 1015.0 |
| 20260904000750 | 69 | 301 | 0.0 | 3.0 | 0.00 | 0.00 | 0.83 | 99 | 1014.9 |
| 20260904000310 | 69 | 0 | 0.0 | 0.0 | 0.00 | 0.00 | 0.83 | 99 | 1014.9 |
| 20260903235746 | 69 | 0 | 0.0 | 0.0 | 0.00 | 0.00 | 0.83 | 99 | 1013.7 |
| 20260903235246 | 69 | 272 | 0.0 | 3.0 | 0.00 | 0.00 | 0.83 | 99 | 1014.9 |
| 20260903234744 | 69 | 172 | 0.0 | 4.0 | 0.00 | 0.00 | 0.83 | 99 | 1014.8 |
| 20260903234304 | 69 | 177 | 0.0 | 2.0 | 0.00 | 0.00 | 0.83 | 99 | 1014.8 |
| 20260903233742 | 69 | 176 | 0.0 | 0.0 | 0.00 | 0.00 | 0.83 | 99 | 1014.8 |
| 20260903233302 | 69 | 177 | 0.0 | 2.0 | 0.00 | 0.00 | 0.83 | 99 | 1014.9 |
| 20260903232802 | 69 | 176 | 0.0 | 1.0 | 0.00 | 0.00 | 0.83 | 99 | 1015.0 |
| 20260903232240 | 70 | 182 | 0.0 | 2.0 | 0.00 | 0.00 | 0.83 | 99 | 1014.9 |
| 20260903231738 | 70 | 185 | 0.0 | 1.0 | 0.00 | 0.00 | 0.83 | 99 | 1015.0 |
| 20260903231259 | 70 | 191 | 1.0 | 6.0 | 0.00 | 0.00 | 0.83 | 99 | 1015.0 |
| 20260903230736 | 70 | 228 | 1.0 | 11.0 | 0.00 | 0.00 | 0.83 | 99 | 1015.1 |
| 20260903230257 | 70 | 274 | 2.0 | 5.0 | 0.00 | 0.00 | 0.83 | 99 | 1015.0 |
| 20260903225734 | 70 | 174 | 2.0 | 12.0 | 0.00 | 0.00 | 0.83 | 99 | 1014.7 |
| 20260903225233 | 70 | 187 | 0.0 | 2.0 | 0.00 | 0.00 | 0.83 | 99 | 1014.6 |
| 20260903224753 | 70 | 186 | 0.0 | 4.0 | 0.00 | 0.00 | 0.83 | 99 | 1014.4 |
| 20260903224232 | 70 | 173 | 2.0 | 8.0 | 0.00 | 0.00 | 0.83 | 99 | 1014.2 |
| 20260903223730 | 70 | 190 | 1.0 | 8.0 | 0.00 | 0.00 | 0.83 | 99 | 1014.3 |
| 20260903223250 | 70 | 165 | 2.0 | 8.0 | 0.00 | 0.00 | 0.83 | 99 | 1014.4 |
| 20260903222729 | 70 | 174 | 6.0 | 11.0 | 0.00 | 0.00 | 0.83 | 98 | 1014.9 |
| 20260903182223 | 77 | 176 | 0.0 | 2.0 | 0.00 | 2.17 | 0.83 | 92 | 1013.2 |
| 20260903181722 | 77 | 182 | 1.0 | 7.0 | 0.00 | 2.17 | 0.83 | 92 | 1013.2 |
| 20260903181221 | 77 | 203 | 0.0 | 6.0 | 0.00 | 2.17 | 0.83 | 89 | 1013.2 |
| 20260903180741 | 79 | 183 | 4.0 | 13.0 | 0.00 | 2.17 | 0.83 | 90 | 1013.3 |
| 20260903180219 | 78 | 194 | 2.0 | 10.0 | 0.00 | 2.17 | 0.83 | 93 | 1013.3 |
| 20260903175717 | 77 | 177 | 2.0 | 11.0 | 0.00 | 2.17 | 0.83 | 93 | 1013.1 |
| 20260903175217 | 76 | 180 | 2.0 | 7.0 | 0.00 | 2.17 | 0.83 | 96 | 1013.2 |
| 20260903174716 | 74 | 171 | 0.0 | 5.0 | 0.00 | 2.17 | 0.83 | 96 | 1013.3 |
| 20260903174215 | 74 | 215 | 0.0 | 0.0 | 0.00 | 2.17 | 0.83 | 96 | 1013.3 |
| 20260903173714 | 74 | 177 | 0.0 | 0.0 | 0.00 | 2.17 | 0.83 | 96 | 1013.4 |
| 20260903173234 | 74 | 177 | 0.0 | 4.0 | 0.00 | 2.17 | 0.83 | 97 | 1013.4 |
| 20260903172712 | 74 | 177 | 0.0 | 5.0 | 0.00 | 2.17 | 0.83 | 98 | 1013.5 |
| 20260903172211 | 73 | 177 | 0.0 | 2.0 | 0.00 | 2.17 | 0.83 | 98 | 1013.7 |
| 20260903171731 | 72 | 183 | 0.0 | 4.0 | 0.00 | 2.17 | 0.83 | 97 | 1013.8 |
| 20260903171209 | 73 | 183 | 3.0 | 7.0 | 0.01 | 2.17 | 0.83 | 98 | 1013.8 |
| 20260903170709 | 73 | 167 | 0.0 | 2.0 | 0.20 | 2.17 | 0.83 | 99 | 1013.9 |
| 20260903170206 | 72 | 163 | 2.0 | 7.0 | 0.39 | 2.17 | 0.83 | 99 | 1013.9 |
| 20260903165706 | 72 | 168 | 1.0 | 6.0 | 0.51 | 2.17 | 0.83 | 99 | 1014.0 |
| 20260903165204 | 72 | 169 | 1.0 | 8.0 | 0.58 | 2.17 | 0.83 | 100 | 1014.0 |
| 20260903164725 | 71 | 172 | 0.0 | 0.0 | 0.58 | 2.17 | 0.83 | 100 | 1013.9 |
| 20260903164203 | 71 | 183 | 1.0 | 8.0 | 0.58 | 2.17 | 0.83 | 100 | 1014.0 |
| 20260903163702 | 71 | 5 | 3.0 | 10.0 | 0.58 | 2.17 | 0.83 | 100 | 1014.2 |
| 20260903163201 | 70 | 138 | 0.0 | 5.0 | 0.58 | 2.17 | 0.83 | 100 | 1014.3 |
| 20260903162721 | 70 | 123 | 1.0 | 11.0 | 0.58 | 2.17 | 0.83 | 100 | 1014.4 |
| 20260903162219 | 69 | 110 | 3.0 | 7.0 | 0.58 | 2.17 | 0.83 | 99 | 1014.5 |
| 20260903161657 | 69 | 159 | 3.0 | 9.0 | 0.58 | 2.17 | 0.83 | 99 | 1014.6 |
| 20260903161157 | 69 | 352 | 5.0 | 13.0 | 0.56 | 2.15 | 0.81 | 99 | 1014.6 |
| 20260903160656 | 68 | 156 | 4.0 | 9.0 | 0.37 | 1.97 | 0.60 | 94 | 1014.7 |
| 20260903160216 | 32 | 288 | 8.0 | 20.0 | 0.19 | 1.79 | 0.43 | 1 | 1014.7 |
| 20260903155715 | 32 | 354 | 7.0 | 14.0 | 0.06 | 1.66 | 0.30 | 1 | 1014.7 |
| 20260903155153 | 32 | 349 | 2.0 | 10.0 | 0.00 | 1.60 | 0.25 | 1 | 1014.8 |
| 20260903154651 | 32 | 10 | 7.0 | 29.0 | 0.00 | 1.60 | 0.25 | 1 | 1014.9 |
| 20260903154211 | 32 | 10 | 14.0 | 36.0 | 0.00 | 1.60 | 0.25 | 1 | 1014.9 |
| 20260903153650 | 54 | 1 | 20.0 | 37.0 | 0.00 | 1.60 | 0.25 | 52 | 1015.9 |
| 20260903153148 | 75 | 351 | 8.0 | 21.0 | 0.00 | 1.60 | 0.25 | 99 | 1016.0 |
| 20260903152647 | 75 | 19 | 6.0 | 11.0 | 0.00 | 1.60 | 0.25 | 99 | 1016.0 |
| 20260903152146 | 76 | 9 | 6.0 | 15.0 | 0.00 | 1.60 | 0.25 | 99 | 1016.1 |
| 20260903151645 | 76 | 334 | 2.0 | 10.0 | 0.00 | 1.60 | 0.25 | 99 | 1015.7 |
| 20260903151145 | 76 | 313 | 1.0 | 8.0 | 0.00 | 1.60 | 0.25 | 99 | 1015.2 |
| 20260903150643 | 76 | 297 | 3.0 | 11.0 | 0.00 | 1.60 | 0.25 | 99 | 1015.2 |
| 20260903150203 | 76 | 298 | 1.0 | 9.0 | 0.00 | 1.60 | 0.25 | 99 | 1015.5 |
| 20260903145641 | 76 | 318 | 1.0 | 6.0 | 0.00 | 1.60 | 0.25 | 98 | 1014.7 |
| 20260903145140 | 76 | 275 | 0.0 | 0.0 | 0.00 | 1.60 | 0.25 | 98 | 1014.7 |
| 20260903144640 | 76 | 275 | 0.0 | 0.0 | 0.00 | 1.60 | 0.25 | 98 | 1014.6 |
| 20260903144138 | 76 | 275 | 0.0 | 0.0 | 0.00 | 1.60 | 0.25 | 98 | 1014.6 |
| 20260903143638 | 76 | 275 | 0.0 | 0.0 | 0.00 | 1.60 | 0.25 | 98 | 1014.7 |
| 20260903143136 | 77 | 275 | 0.0 | 2.0 | 0.00 | 1.60 | 0.25 | 97 | 1014.9 |
| 20260903142636 | 77 | 288 | 0.0 | 3.0 | 0.00 | 1.60 | 0.25 | 97 | 1014.8 |
| 20260903142155 | 77 | 323 | 0.0 | 5.0 | 0.00 | 1.60 | 0.25 | 97 | 1014.8 |
| 20260903141633 | 78 | 279 | 1.0 | 7.0 | 0.00 | 1.60 | 0.25 | 96 | 1014.5 |
| 20260903141132 | 78 | 248 | 0.0 | 4.0 | 0.00 | 1.60 | 0.25 | 97 | 1014.4 |
| 20260903140631 | 78 | 274 | 0.0 | 3.0 | 0.00 | 1.60 | 0.25 | 98 | 1014.5 |
| 20260903140152 | 78 | 276 | 1.0 | 7.0 | 0.00 | 1.60 | 0.25 | 98 | 1014.5 |
| 20260903135629 | 78 | 270 | 1.0 | 5.0 | 0.00 | 1.60 | 0.25 | 98 | 1014.3 |
| 20260903135128 | 77 | 289 | 2.0 | 9.0 | 0.00 | 1.60 | 0.25 | 99 | 1014.3 |
| 20260903134628 | 76 | 264 | 0.0 | 0.0 | 0.00 | 1.60 | 0.25 | 99 | 1014.5 |
| 20260903134127 | 76 | 297 | 0.0 | 0.0 | 0.00 | 1.60 | 0.25 | 100 | 1014.7 |
| 20260903133646 | 75 | 299 | 0.0 | 0.0 | 0.00 | 1.60 | 0.25 | 100 | 1014.9 |
| 20260903133124 | 75 | 299 | 0.0 | 0.0 | 0.00 | 1.60 | 0.25 | 100 | 1014.8 |
| 20260903132645 | 74 | 299 | 0.0 | 0.0 | 0.00 | 1.60 | 0.25 | 100 | 1014.9 |
| 20260903132122 | 74 | 291 | 0.0 | 0.0 | 0.00 | 1.60 | 0.25 | 100 | 1015.1 |
| 20260903131642 | 73 | 0 | 0.0 | 0.0 | 0.00 | 1.60 | 0.25 | 100 | 1015.1 |
| 20260903131120 | 73 | 0 | 0.0 | 0.0 | 0.00 | 1.60 | 0.25 | 100 | 1015.0 |
| 20260903130619 | 72 | 0 | 0.0 | 0.0 | 0.00 | 1.60 | 0.25 | 100 | 1015.0 |
| 20260903130118 | 72 | 0 | 0.0 | 0.0 | 0.00 | 1.60 | 0.25 | 100 | 1015.0 |
| 20260903125618 | 72 | 0 | 0.0 | 0.0 | 0.00 | 1.60 | 0.25 | 100 | 1015.1 |
| 20260903125137 | 72 | 0 | 0.0 | 0.0 | 0.00 | 1.60 | 0.25 | 100 | 1015.2 |
| 20260903124636 | 71 | 0 | 0.0 | 0.0 | 0.00 | 1.60 | 0.25 | 100 | 1015.3 |
| 20260903124114 | 71 | 0 | 0.0 | 0.0 | 0.00 | 1.60 | 0.25 | 100 | 1015.3 |
| 20260903123614 | 71 | 0 | 0.0 | 0.0 | 0.00 | 1.60 | 0.25 | 100 | 1015.4 |
| 20260903123133 | 71 | 0 | 0.0 | 0.0 | 0.00 | 1.60 | 0.25 | 100 | 1015.5 |
| 20260903122611 | 71 | 0 | 0.0 | 0.0 | 0.00 | 1.60 | 0.25 | 100 | 1015.6 |
| 20260903122131 | 70 | 0 | 0.0 | 0.0 | 0.00 | 1.60 | 0.25 | 100 | 1015.5 |
| 20260903121630 | 70 | 290 | 0.0 | 0.0 | 0.00 | 1.60 | 0.25 | 100 | 1015.5 |
| 20260903121108 | 70 | 277 | 0.0 | 0.0 | 0.00 | 1.60 | 0.25 | 100 | 1015.5 |
| 20260903120607 | 70 | 277 | 0.0 | 0.0 | 0.00 | 1.60 | 0.25 | 100 | 1015.5 |
| 20260903120106 | 70 | 277 | 0.0 | 0.0 | 0.00 | 1.60 | 0.25 | 100 | 1015.4 |
| 20260903115605 | 69 | 277 | 0.0 | 0.0 | 0.00 | 1.60 | 0.25 | 100 | 1015.4 |
| 20260903115105 | 69 | 277 | 0.0 | 0.0 | 0.00 | 1.60 | 0.25 | 100 | 1015.5 |
| 20260903114603 | 69 | 277 | 0.0 | 0.0 | 0.00 | 1.60 | 0.25 | 100 | 1015.5 |
| 20260903114102 | 68 | 277 | 0.0 | 0.0 | 0.00 | 1.60 | 0.25 | 100 | 1015.5 |
| 20260903113601 | 68 | 277 | 0.0 | 0.0 | 0.00 | 1.60 | 0.25 | 100 | 1015.4 |
| 20260903113122 | 68 | 277 | 0.0 | 0.0 | 0.00 | 1.60 | 0.25 | 100 | 1015.5 |
| 20260903112559 | 68 | 277 | 0.0 | 0.0 | 0.00 | 1.60 | 0.25 | 100 | 1015.5 |
| 20260903112058 | 68 | 277 | 0.0 | 0.0 | 0.00 | 1.60 | 0.25 | 100 | 1015.4 |
| 20260903111557 | 68 | 277 | 0.0 | 0.0 | 0.00 | 1.60 | 0.25 | 100 | 1015.4 |
| 20260903111056 | 68 | 277 | 0.0 | 0.0 | 0.00 | 1.60 | 0.25 | 100 | 1015.4 |
| 20260903110616 | 68 | 277 | 0.0 | 0.0 | 0.00 | 1.60 | 0.25 | 100 | 1015.3 |
| 20260903110054 | 68 | 277 | 0.0 | 0.0 | 0.00 | 1.60 | 0.25 | 100 | 1015.2 |
| 20260903105553 | 68 | 277 | 0.0 | 0.0 | 0.00 | 1.60 | 0.25 | 100 | 1015.1 |
| 20260903105052 | 68 | 277 | 0.0 | 0.0 | 0.00 | 1.60 | 0.25 | 100 | 1015.1 |
| 20260903104551 | 68 | 277 | 0.0 | 0.0 | 0.00 | 1.60 | 0.25 | 100 | 1015.0 |
| 20260903104050 | 68 | 277 | 0.0 | 0.0 | 0.00 | 1.60 | 0.25 | 100 | 1015.0 |
| 20260903103549 | 68 | 277 | 0.0 | 0.0 | 0.00 | 1.60 | 0.25 | 100 | 1015.0 |
| 20260903103048 | 68 | 277 | 0.0 | 0.0 | 0.00 | 1.60 | 0.25 | 100 | 1015.0 |
| 20260903102547 | 68 | 277 | 0.0 | 0.0 | 0.00 | 1.60 | 0.25 | 100 | 1015.1 |
| 20260903102046 | 68 | 277 | 0.0 | 0.0 | 0.00 | 1.60 | 0.25 | 100 | 1015.1 |
| 20260903101545 | 68 | 277 | 0.0 | 0.0 | 0.00 | 1.60 | 0.25 | 100 | 1015.0 |
| 20260903101044 | 68 | 277 | 0.0 | 0.0 | 0.00 | 1.60 | 0.25 | 100 | 1015.0 |
| 20260903100543 | 68 | 277 | 0.0 | 0.0 | 0.00 | 1.60 | 0.25 | 100 | 1015.0 |
| 20260903100042 | 68 | 277 | 0.0 | 0.0 | 0.00 | 1.60 | 0.25 | 100 | 1015.0 |
| 20260903095540 | 68 | 277 | 0.0 | 0.0 | 0.00 | 1.60 | 0.25 | 100 | 1015.0 |
| 20260903095040 | 68 | 277 | 0.0 | 0.0 | 0.00 | 1.60 | 0.25 | 100 | 1015.0 |
| 20260903094539 | 68 | 277 | 0.0 | 0.0 | 0.00 | 1.60 | 0.25 | 100 | 1015.0 |
| 20260903094037 | 68 | 277 | 0.0 | 0.0 | 0.00 | 1.60 | 0.25 | 100 | 1014.9 |
| 20260903093537 | 68 | 326 | 0.0 | 0.0 | 0.00 | 1.60 | 0.25 | 100 | 1014.9 |
| 20260903093035 | 68 | 313 | 0.0 | 0.0 | 0.00 | 1.60 | 0.25 | 100 | 1014.8 |
| 20260903092535 | 68 | 313 | 0.0 | 0.0 | 0.00 | 1.60 | 0.25 | 100 | 1014.8 |
| 20260903092034 | 68 | 313 | 0.0 | 0.0 | 0.01 | 1.60 | 0.25 | 100 | 1014.7 |
| 20260903091533 | 68 | 313 | 0.0 | 0.0 | 0.01 | 1.60 | 0.25 | 100 | 1014.7 |
| 20260903091052 | 68 | 313 | 0.0 | 0.0 | 0.01 | 1.60 | 0.25 | 100 | 1014.6 |